ANA589 RJTT-RJOM

Flight info

Callsign ANA589
Flight time 1h 16m
Altitude 40000
Route NINOX Y28 BAMBO Y283 ITUKI
Aircraft B772/H-SDE2FGILORVWX/LB1

Departure

Time 2026-04-24 21:48
Airport Tokyo Haneda International Airport (RJTT)

Arrival

Time 2026-04-24 23:05
Airport Matsuyama Airport (RJOM)
Time Latitude Longitude Altitude Speed Heading
2026-04-24 21:18 35.55269 139.78879 32 ft 0 kts 240°
2026-04-24 21:35 35.55276 139.78894 32 ft 4 kts 240°
2026-04-24 21:36 35.55288 139.78919 31 ft 2 kts 240°
2026-04-24 21:36 35.55296 139.78946 32 ft 4 kts 279°
2026-04-24 21:36 35.55285 139.78973 31 ft 4 kts 321°
2026-04-24 21:36 35.55264 139.78990 32 ft 3 kts 330°
2026-04-24 21:37 35.55240 139.79007 29 ft 4 kts 330°
2026-04-24 21:37 35.55217 139.79023 30 ft 4 kts 330°
2026-04-24 21:37 35.55193 139.79040 32 ft 4 kts 330°
2026-04-24 21:37 35.55170 139.79056 32 ft 4 kts 330°
2026-04-24 21:38 35.55146 139.79073 31 ft 4 kts 330°
2026-04-24 21:38 35.55131 139.79084 32 ft 1 kts 330°
2026-04-24 21:40 35.55164 139.79069 32 ft 9 kts 346°
2026-04-24 21:40 35.55220 139.79087 32 ft 9 kts 49°
2026-04-24 21:40 35.55252 139.79153 30 ft 10 kts 62°
2026-04-24 21:40 35.55228 139.79236 31 ft 12 kts 150°
2026-04-24 21:41 35.55156 139.79289 30 ft 12 kts 148°
2026-04-24 21:41 35.55081 139.79343 29 ft 14 kts 150°
2026-04-24 21:41 35.54996 139.79404 31 ft 14 kts 149°
2026-04-24 21:41 35.54910 139.79464 30 ft 14 kts 150°
2026-04-24 21:42 35.54825 139.79524 32 ft 14 kts 149°
2026-04-24 21:42 35.54711 139.79606 29 ft 25 kts 150°
2026-04-24 21:42 35.54556 139.79715 28 ft 24 kts 150°
2026-04-24 21:42 35.54428 139.79808 29 ft 21 kts 150°
2026-04-24 21:43 35.54300 139.79898 30 ft 21 kts 149°
2026-04-24 21:43 35.54172 139.79989 26 ft 21 kts 150°
2026-04-24 21:43 35.54044 139.80080 27 ft 22 kts 150°
2026-04-24 21:43 35.53935 139.80156 27 ft 15 kts 150°
2026-04-24 21:44 35.53840 139.80193 30 ft 15 kts 193°
2026-04-24 21:44 35.53738 139.80183 28 ft 16 kts 175°
2026-04-24 21:44 35.53617 139.80217 30 ft 18 kts 152°
2026-04-24 21:44 35.53506 139.80296 35 ft 18 kts 149°
2026-04-24 21:45 35.53381 139.80385 41 ft 25 kts 151°
2026-04-24 21:45 35.53216 139.80503 48 ft 28 kts 150°
2026-04-24 21:45 35.53088 139.80594 46 ft 17 kts 150°
2026-04-24 21:45 35.52981 139.80660 48 ft 17 kts 169°
2026-04-24 21:46 35.52881 139.80588 47 ft 17 kts 221°
2026-04-24 21:46 35.52792 139.80488 50 ft 17 kts 223°
2026-04-24 21:46 35.52703 139.80387 47 ft 17 kts 222°
2026-04-24 21:46 35.52622 139.80299 51 ft 15 kts 221°
2026-04-24 21:47 35.52543 139.80224 52 ft 13 kts 194°
2026-04-24 21:47 35.52500 139.80243 49 ft 10 kts 139°
2026-04-24 21:47 35.52433 139.80330 51 ft 10 kts 129°
2026-04-24 21:47 35.52436 139.80379 54 ft 2 kts 48°
2026-04-24 21:48 35.52498 139.80456 53 ft 41 kts 43°
2026-04-24 21:48 35.52936 139.80947 54 ft 128 kts 42°
2026-04-24 21:48 35.53668 139.81787 643 ft 148 kts 44°
2026-04-24 21:48 35.54392 139.82633 1853 ft 143 kts 44°
2026-04-24 21:49 35.55136 139.83429 2694 ft 145 kts 45°
2026-04-24 21:49 35.55916 139.84295 3215 ft 155 kts 49°
2026-04-24 21:49 35.56356 139.85549 3590 ft 178 kts 92°
2026-04-24 21:49 35.56010 139.87118 3848 ft 205 kts 107°
2026-04-24 21:50 35.55576 139.88913 4040 ft 233 kts 104°
2026-04-24 21:50 35.55109 139.90935 4401 ft 255 kts 104°
2026-04-24 21:50 35.54491 139.93016 4905 ft 268 kts 120°
2026-04-24 21:50 35.53125 139.94585 5641 ft 275 kts 154°
2026-04-24 21:51 35.51254 139.95031 6387 ft 278 kts 187°
2026-04-24 21:51 35.49370 139.94573 6980 ft 280 kts 195°
2026-04-24 21:51 35.47473 139.93981 7604 ft 280 kts 203°
2026-04-24 21:51 35.45888 139.92622 8196 ft 282 kts 236°
2026-04-24 21:52 35.45095 139.90462 9031 ft 277 kts 259°
2026-04-24 21:52 35.44748 139.88118 9729 ft 282 kts 263°
2026-04-24 21:52 35.44397 139.85715 10357 ft 293 kts 262°
2026-04-24 21:52 35.44061 139.83138 10704 ft 315 kts 263°
2026-04-24 21:53 35.43722 139.80443 11485 ft 325 kts 263°
2026-04-24 21:53 35.43366 139.77719 12438 ft 330 kts 262°
2026-04-24 21:53 35.42984 139.74895 13580 ft 332 kts 262°
2026-04-24 21:53 35.42779 139.72122 14476 ft 333 kts 274°
2026-04-24 21:54 35.43357 139.69377 15218 ft 336 kts 289°
2026-04-24 21:54 35.44161 139.66617 15794 ft 353 kts 288°
2026-04-24 21:54 35.44936 139.63717 16589 ft 361 kts 288°
2026-04-24 21:54 35.45701 139.60766 17555 ft 365 kts 287°
2026-04-24 21:55 35.46469 139.57795 18636 ft 365 kts 288°
2026-04-24 21:55 35.47242 139.54824 19578 ft 366 kts 286°
2026-04-24 21:55 35.48013 139.51842 20418 ft 369 kts 285°
2026-04-24 21:55 35.48646 139.48795 21098 ft 368 kts 275°
2026-04-24 21:56 35.48789 139.45642 21791 ft 372 kts 268°
2026-04-24 21:56 35.48831 139.42566 22619 ft 375 kts 268°
2026-04-24 21:56 35.48893 139.39372 23575 ft 372 kts 266°
2026-04-24 21:56 35.48993 139.36164 24244 ft 379 kts 270°
2026-04-24 21:57 35.49267 139.32988 24866 ft 373 kts 270°
2026-04-24 21:57 35.49404 139.29798 25507 ft 375 kts 267°
2026-04-24 21:57 35.49457 139.26605 26410 ft 372 kts 268°
2026-04-24 21:57 35.49536 139.23450 27323 ft 369 kts 268°
2026-04-24 21:58 35.49646 139.20323 28082 ft 366 kts 270°
2026-04-24 21:58 35.49817 139.17202 28599 ft 367 kts 271°
2026-04-24 21:58 35.49858 139.14083 28910 ft 368 kts 265°
2026-04-24 21:58 35.49610 139.10947 29415 ft 371 kts 263°
2026-04-24 21:59 35.49377 139.07836 30030 ft 371 kts 264°
2026-04-24 21:59 35.49201 139.04630 30551 ft 373 kts 265°
2026-04-24 21:59 35.49052 139.01458 31075 ft 371 kts 265°
2026-04-24 21:59 35.48913 138.98350 31655 ft 368 kts 265°
2026-04-24 22:00 35.48765 138.95239 32237 ft 363 kts 265°
2026-04-24 22:00 35.48651 138.92153 32625 ft 361 kts 266°
2026-04-24 22:00 35.48534 138.89070 32867 ft 363 kts 264°
2026-04-24 22:00 35.48355 138.85965 33106 ft 364 kts 264°
2026-04-24 22:01 35.48180 138.82885 33700 ft 359 kts 264°
2026-04-24 22:01 35.48014 138.79852 34328 ft 350 kts 265°
2026-04-24 22:01 35.47893 138.76884 34668 ft 348 kts 264°
2026-04-24 22:01 35.47733 138.73919 34861 ft 350 kts 264°
2026-04-24 22:02 35.47567 138.70936 35035 ft 351 kts 264°
2026-04-24 22:02 35.47409 138.67937 35258 ft 352 kts 264°
2026-04-24 22:02 35.47255 138.64937 35478 ft 352 kts 264°
2026-04-24 22:02 35.47101 138.61944 35786 ft 351 kts 264°
2026-04-24 22:03 35.46947 138.58950 36039 ft 352 kts 265°
2026-04-24 22:03 35.46792 138.55953 36195 ft 354 kts 265°
2026-04-24 22:03 35.46635 138.52941 36454 ft 354 kts 265°
2026-04-24 22:03 35.46476 138.49927 36725 ft 354 kts 265°
2026-04-24 22:04 35.46319 138.46919 36954 ft 354 kts 265°
2026-04-24 22:04 35.46161 138.43911 37183 ft 355 kts 265°
2026-04-24 22:04 35.46002 138.40889 37439 ft 353 kts 265°
2026-04-24 22:04 35.45841 138.37882 37622 ft 354 kts 266°
2026-04-24 22:05 35.45679 138.34862 37839 ft 355 kts 265°
2026-04-24 22:05 35.45516 138.31842 38129 ft 355 kts 265°
2026-04-24 22:05 35.45352 138.28810 38178 ft 358 kts 265°
2026-04-24 22:05 35.45186 138.25796 38293 ft 360 kts 265°
2026-04-24 22:06 35.45016 138.22686 38579 ft 361 kts 265°
2026-04-24 22:06 35.44851 138.19666 38924 ft 359 kts 264°
2026-04-24 22:06 35.44683 138.16605 39176 ft 358 kts 265°
2026-04-24 22:06 35.44510 138.13568 39350 ft 358 kts 265°
2026-04-24 22:07 35.44332 138.10524 39461 ft 359 kts 265°
2026-04-24 22:07 35.43970 138.04391 39675 ft 358 kts 264°
2026-04-24 22:07 35.43789 138.01359 39831 ft 355 kts 264°
2026-04-24 22:08 35.43609 137.98341 39965 ft 354 kts 264°
2026-04-24 22:08 35.43428 137.95334 40070 ft 355 kts 264°
2026-04-24 22:08 35.43246 137.92302 40128 ft 358 kts 264°
2026-04-24 22:09 35.42878 137.86173 40190 ft 363 kts 264°
2026-04-24 22:09 35.42501 137.79972 40195 ft 367 kts 264°
2026-04-24 22:10 35.42084 137.73727 40185 ft 367 kts 263°
2026-04-24 22:10 35.41621 137.67495 40177 ft 367 kts 263°
2026-04-24 22:11 35.41165 137.61285 40187 ft 365 kts 264°
2026-04-24 22:11 35.40489 137.55118 40181 ft 365 kts 259°
2026-04-24 22:12 35.39253 137.49077 40189 ft 366 kts 256°
2026-04-24 22:12 35.37926 137.43047 40168 ft 366 kts 256°
2026-04-24 22:13 35.36829 137.38055 40160 ft 365 kts 256°
2026-04-24 22:13 35.35518 137.32069 40168 ft 363 kts 256°
2026-04-24 22:14 35.34210 137.26103 40171 ft 363 kts 256°
2026-04-24 22:14 35.32901 137.20144 40170 ft 362 kts 256°
2026-04-24 22:15 35.31593 137.14203 40175 ft 362 kts 256°
2026-04-24 22:15 35.30278 137.08258 40175 ft 362 kts 256°
2026-04-24 22:16 35.28936 137.02297 40173 ft 364 kts 256°
2026-04-24 22:16 35.27586 136.96313 40159 ft 365 kts 256°
2026-04-24 22:17 35.26236 136.90332 40169 ft 365 kts 256°
2026-04-24 22:17 35.24894 136.84338 40168 ft 365 kts 256°
2026-04-24 22:18 35.23555 136.78352 40164 ft 365 kts 256°
2026-04-24 22:18 35.22212 136.72366 40163 ft 365 kts 256°
2026-04-24 22:19 35.20868 136.66393 40167 ft 364 kts 256°
2026-04-24 22:19 35.19520 136.60416 40152 ft 364 kts 256°
2026-04-24 22:20 35.18175 136.54470 40163 ft 363 kts 256°
2026-04-24 22:20 35.16836 136.48565 40165 ft 363 kts 256°
2026-04-24 22:21 35.15493 136.42653 40182 ft 360 kts 255°
2026-04-24 22:21 35.14149 136.36747 40179 ft 361 kts 255°
2026-04-24 22:22 35.12794 136.30826 40173 ft 362 kts 255°
2026-04-24 22:22 35.11436 136.24898 40193 ft 363 kts 255°
2026-04-24 22:23 35.10074 136.18944 40182 ft 364 kts 255°
2026-04-24 22:23 35.08709 136.12997 40174 ft 363 kts 255°
2026-04-24 22:24 35.07344 136.07065 40176 ft 362 kts 255°
2026-04-24 22:24 35.05982 136.01157 40175 ft 361 kts 255°
2026-04-24 22:25 35.04623 135.95258 40178 ft 360 kts 255°
2026-04-24 22:25 35.03267 135.89377 40182 ft 359 kts 255°
2026-04-24 22:26 35.01911 135.83512 40196 ft 359 kts 255°
2026-04-24 22:26 35.00762 135.77592 40186 ft 359 kts 257°
2026-04-24 22:27 34.99678 135.71654 40172 ft 358 kts 257°
2026-04-24 22:27 34.98593 135.65743 40173 ft 357 kts 257°
2026-04-24 22:28 34.97505 135.59845 40166 ft 356 kts 257°
2026-04-24 22:28 34.96411 135.53951 40160 ft 356 kts 257°
2026-04-24 22:29 34.94764 135.45101 40174 ft 359 kts 257°
2026-04-24 22:29 34.93653 135.39158 40166 ft 360 kts 257°
2026-04-24 22:30 34.92525 135.33207 40164 ft 360 kts 256°
2026-04-24 22:30 34.91357 135.27264 40159 ft 360 kts 256°
2026-04-24 22:31 34.90188 135.21330 40174 ft 360 kts 256°
2026-04-24 22:31 34.89023 135.15409 40174 ft 359 kts 256°
2026-04-24 22:32 34.87866 135.09541 40182 ft 359 kts 256°
2026-04-24 22:32 34.86690 135.03590 40182 ft 359 kts 256°
2026-04-24 22:33 34.85536 134.97725 40182 ft 359 kts 256°
2026-04-24 22:33 34.84424 134.91806 40183 ft 359 kts 256°
2026-04-24 22:34 34.83317 134.85897 40182 ft 358 kts 256°
2026-04-24 22:34 34.82200 134.79975 40184 ft 358 kts 256°
2026-04-24 22:35 34.81084 134.74085 40173 ft 357 kts 256°
2026-04-24 22:35 34.79970 134.68210 40184 ft 356 kts 256°
2026-04-24 22:36 34.78848 134.62347 40184 ft 356 kts 256°
2026-04-24 22:36 34.77717 134.56478 40194 ft 357 kts 256°
2026-04-24 22:37 34.76578 134.50576 40158 ft 359 kts 256°
2026-04-24 22:37 34.75472 134.44680 40182 ft 356 kts 255°
2026-04-24 22:38 34.74308 134.38825 40184 ft 356 kts 256°
2026-04-24 22:38 34.73192 134.32953 40185 ft 357 kts 256°
2026-04-24 22:39 34.72072 134.27079 40190 ft 357 kts 256°
2026-04-24 22:39 34.70941 134.21201 40171 ft 357 kts 255°
2026-04-24 22:40 34.69803 134.15336 40184 ft 354 kts 255°
2026-04-24 22:40 34.68694 134.09653 39629 ft 339 kts 255°
2026-04-24 22:41 34.68162 134.06925 39163 ft 334 kts 255°
2026-04-24 22:41 34.67621 134.04168 38627 ft 329 kts 255°
2026-04-24 22:41 34.67090 134.01532 38087 ft 323 kts 252°
2026-04-24 22:41 34.66325 133.98982 37527 ft 320 kts 249°
2026-04-24 22:42 34.65528 133.96474 37011 ft 316 kts 250°
2026-04-24 22:42 34.64770 133.93986 36483 ft 313 kts 250°
2026-04-24 22:42 34.64023 133.91520 36005 ft 309 kts 250°
2026-04-24 22:42 34.63284 133.89083 35515 ft 306 kts 250°
2026-04-24 22:43 34.62548 133.86667 35032 ft 304 kts 250°
2026-04-24 22:43 34.61814 133.84269 34536 ft 302 kts 250°
2026-04-24 22:43 34.61084 133.81885 34063 ft 301 kts 250°
2026-04-24 22:43 34.60355 133.79517 33540 ft 299 kts 250°
2026-04-24 22:44 34.59631 133.77169 33069 ft 296 kts 249°
2026-04-24 22:44 34.58908 133.74836 32612 ft 294 kts 251°
2026-04-24 22:44 34.58236 133.72507 32190 ft 290 kts 251°
2026-04-24 22:44 34.57544 133.70220 31741 ft 288 kts 250°
2026-04-24 22:45 34.56817 133.67955 31308 ft 287 kts 250°
2026-04-24 22:45 34.56102 133.65701 30910 ft 286 kts 250°
2026-04-24 22:45 34.55399 133.63449 30514 ft 285 kts 250°
2026-04-24 22:45 34.54700 133.61198 30096 ft 285 kts 250°
2026-04-24 22:46 34.53977 133.58960 29589 ft 285 kts 250°
2026-04-24 22:46 34.53240 133.56724 29103 ft 285 kts 250°
2026-04-24 22:46 34.52505 133.54499 28620 ft 284 kts 250°
2026-04-24 22:46 34.51772 133.52277 28163 ft 284 kts 250°
2026-04-24 22:47 34.51040 133.50053 27681 ft 284 kts 250°
2026-04-24 22:47 34.50307 133.47827 27228 ft 285 kts 250°
2026-04-24 22:47 34.49579 133.45614 26737 ft 286 kts 250°
2026-04-24 22:47 34.48831 133.43345 26278 ft 287 kts 250°
2026-04-24 22:48 34.48088 133.41093 25834 ft 288 kts 250°
2026-04-24 22:48 34.47351 133.38862 25379 ft 290 kts 250°
2026-04-24 22:48 34.46614 133.36579 24916 ft 292 kts 251°
2026-04-24 22:48 34.45890 133.34275 24443 ft 294 kts 251°
2026-04-24 22:49 34.45161 133.31948 23963 ft 297 kts 251°
2026-04-24 22:49 34.44421 133.29592 23444 ft 300 kts 251°
2026-04-24 22:49 34.43677 133.27226 22919 ft 302 kts 251°
2026-04-24 22:49 34.42926 133.24842 22413 ft 303 kts 251°
2026-04-24 22:50 34.42170 133.22450 21933 ft 304 kts 251°
2026-04-24 22:50 34.41415 133.20053 21430 ft 306 kts 251°
2026-04-24 22:50 34.40652 133.17636 20921 ft 308 kts 251°
2026-04-24 22:50 34.39881 133.15212 20408 ft 310 kts 250°
2026-04-24 22:51 34.39100 133.12764 19893 ft 313 kts 250°
2026-04-24 22:51 34.38312 133.10298 19359 ft 316 kts 250°
2026-04-24 22:51 34.37513 133.07803 18795 ft 320 kts 250°
2026-04-24 22:51 34.36705 133.05277 18200 ft 324 kts 250°
2026-04-24 22:52 34.35887 133.02719 17565 ft 328 kts 250°
2026-04-24 22:52 34.35061 133.00138 16969 ft 330 kts 250°
2026-04-24 22:52 34.34252 132.97607 16371 ft 312 kts 250°
2026-04-24 22:52 34.33469 132.95163 15845 ft 313 kts 250°
2026-04-24 22:53 34.32677 132.92696 15289 ft 317 kts 250°
2026-04-24 22:53 34.31779 132.90273 14708 ft 315 kts 238°
2026-04-24 22:53 34.30229 132.88384 14179 ft 321 kts 215°
2026-04-24 22:53 34.28206 132.87248 13661 ft 323 kts 197°
2026-04-24 22:54 34.26039 132.86539 13139 ft 324 kts 195°
2026-04-24 22:54 34.23854 132.85846 12624 ft 325 kts 195°
2026-04-24 22:54 34.21672 132.85132 12117 ft 326 kts 195°
2026-04-24 22:54 34.19480 132.84401 11539 ft 329 kts 194°
2026-04-24 22:55 34.17367 132.83689 11002 ft 307 kts 194°
2026-04-24 22:55 34.15337 132.83015 10541 ft 296 kts 193°
2026-04-24 22:55 34.13370 132.82369 10201 ft 295 kts 193°
2026-04-24 22:55 34.11411 132.81722 9999 ft 289 kts 193°
2026-04-24 22:56 34.09472 132.81069 9536 ft 288 kts 197°
2026-04-24 22:56 34.07763 132.79848 9098 ft 290 kts 225°
2026-04-24 22:56 34.06737 132.77802 8912 ft 283 kts 251°
2026-04-24 22:56 34.06309 132.75534 8798 ft 272 kts 260°
2026-04-24 22:57 34.05986 132.73362 8269 ft 261 kts 261°
2026-04-24 22:57 34.05664 132.71208 7557 ft 260 kts 260°
2026-04-24 22:57 34.05341 132.69075 6922 ft 256 kts 259°
2026-04-24 22:57 34.05016 132.66975 6433 ft 257 kts 259°
2026-04-24 22:58 34.04682 132.64829 6020 ft 262 kts 259°
2026-04-24 22:58 34.04337 132.62631 5525 ft 271 kts 258°
2026-04-24 22:58 34.03778 132.60465 5014 ft 275 kts 246°
2026-04-24 22:58 34.02995 132.58340 4524 ft 280 kts 244°
2026-04-24 22:59 34.02194 132.56193 4082 ft 282 kts 245°
2026-04-24 22:59 34.01262 132.54199 3644 ft 262 kts 225°
2026-04-24 22:59 33.98229 132.52649 3009 ft 233 kts 180°
2026-04-24 23:00 33.97170 132.52652 2847 ft 226 kts 168°
2026-04-24 23:00 33.95710 132.53127 2705 ft 211 kts 156°
2026-04-24 23:00 33.94464 132.53877 2605 ft 189 kts 134°
2026-04-24 23:00 33.93555 132.54943 2656 ft 181 kts 131°
2026-04-24 23:01 33.92712 132.56012 2626 ft 171 kts 129°
2026-04-24 23:01 33.91954 132.57051 2568 ft 163 kts 128°
2026-04-24 23:01 33.91210 132.58091 2334 ft 162 kts 128°
2026-04-24 23:01 33.90487 132.59103 2127 ft 158 kts 128°
2026-04-24 23:02 33.89772 132.60106 1917 ft 159 kts 127°
2026-04-24 23:02 33.89047 132.61121 1698 ft 161 kts 127°
2026-04-24 23:02 33.88315 132.62146 1462 ft 162 kts 129°
2026-04-24 23:02 33.87588 132.63164 1267 ft 155 kts 130°
2026-04-24 23:03 33.86917 132.64104 1049 ft 141 kts 130°
2026-04-24 23:03 33.86304 132.64961 896 ft 131 kts 130°
2026-04-24 23:03 33.85734 132.65775 702 ft 127 kts 129°
2026-04-24 23:03 33.85157 132.66585 571 ft 129 kts 131°
2026-04-24 23:04 33.84565 132.67394 382 ft 128 kts 130°
2026-04-24 23:04 33.83992 132.68202 236 ft 126 kts 130°
2026-04-24 23:04 33.83423 132.68991 60 ft 124 kts 130°
2026-04-24 23:04 33.82901 132.69719 30 ft 99 kts 130°
2026-04-24 23:05 33.82571 132.70181 27 ft 48 kts 131°
2026-04-24 23:05 33.82399 132.70419 27 ft 30 kts 130°
2026-04-24 23:05 33.82313 132.70561 30 ft 15 kts 98°
2026-04-24 23:05 33.82366 132.70660 30 ft 14 kts 40°
2026-04-24 23:06 33.82454 132.70642 30 ft 14 kts 315°
2026-04-24 23:06 33.82519 132.70557 30 ft 14 kts 311°
2026-04-24 23:06 33.82583 132.70466 30 ft 14 kts 311°
2026-04-24 23:06 33.82652 132.70370 30 ft 15 kts 310°
2026-04-24 23:07 33.82712 132.70285 29 ft 12 kts 310°
2026-04-24 23:07 33.82756 132.70280 30 ft 6 kts 47°
2026-04-24 23:07 33.82789 132.70317 30 ft 6 kts 41°
2026-04-24 23:07 33.82813 132.70342 30 ft 4 kts 41°
2026-04-24 23:08 33.82825 132.70355 28 ft 1 kts 41°
2026-04-24 23:08 33.82831 132.70361 30 ft 0 kts 41°